Location: アルンシュタイン
(50.0000°N, 10.0000°E)
Time: 13:47:11
(UTC+02:00)

ISS - Visible Passes

Search period start: 23 June 2025 00:00
Search period end: 03 July 2025 00:00
Orbit: 414 x 417 km, 51.6° (Epoch: 23 June)

Date Brightness Start Highest point End Pass type
(mag) Time Alt. Az. Time Alt. Az. Time Alt. Az.
23 Jun -1.1 03:48:06 10° SE 03:48:10 10° SE 03:48:14 10° SE visible
25 Jun -2.1 03:45:16 13° S 03:47:20 22° SE 03:49:59 10° E visible
26 Jun -1.7 02:58:20 14° SSE 02:58:55 15° SE 03:00:52 10° ESE visible
27 Jun -3.2 03:44:12 16° SW 03:46:35 43° SSE 03:49:48 10° E visible
28 Jun -2.7 02:57:09 25° S 02:58:04 29° SSE 03:01:03 10° E visible
29 Jun -2.0 02:10:02 20° SE 02:10:02 20° SE 02:12:07 10° E visible
29 Jun -3.8 03:42:53 12° WSW 03:45:56 78° SSE 03:49:17 10° ENE visible
30 Jun -3.7 02:55:42 27° SW 02:57:17 57° SSE 03:00:36 10° ENE visible
30 Jun -3.3 04:30:41 10° W 04:34:02 65° N 04:37:23 10° ENE visible
01 Jul -3.3 02:08:27 39° SSE 02:08:40 40° SSE 02:11:50 10° E visible
01 Jul -3.5 03:41:57 10° W 03:45:19 73° N 03:48:40 10° ENE visible
02 Jul -2.2 01:21:07 23° ESE 01:21:07 23° ESE 01:23:00 10° E visible
02 Jul -3.8 02:53:58 16° WSW 02:56:34 86° NNW 02:59:57 10° ENE visible
02 Jul -3.3 04:30:06 10° WNW 04:33:27 65° N 04:36:48 10° E visible
